Flag for U.S.A. Weather past 2 weeks in Wichita, Kansas, U.S.A.

Now
91 °F

Passing clouds.


Feels Like: 92 °F
Forecast: 78 / 98 °F
Wind: 15 mph from South

Location: Wichita Mid-Continent Airport

Current Time: Jul 27, 2015 at 9:04:35 PM

Latest Report: Jul 27, 2015 at 7:53 PM


Visibility: 10 mi

Pressure: 29.78 "Hg

Humidity: 41%

Dew point: 64 °F

Location of WichitaLocation

Historic Weather in Wichita — Graph

°F

Wichita temperature yesterday

Maximum temperature yesterday: 96 °F (at 4:53 PM)
Minimum temperature yesterday: 79 °F (at 5:53 AM)
Average temperature yesterday: 87 °F

Past Weeks' High & Low Weather Summary

 TemperatureHumidityPressure
High100 °F (Jul 18, 3:53 PM)91% (Jul 21, 3:53 PM)29.96 "Hg (Jul 21, 3:53 PM)
Low70 °F (Jul 22, 4:53 AM)29% (Jul 27, 5:53 PM)29.67 "Hg (Jul 13, 6:53 PM)
Average85 °F63%29.83 "Hg
* Reported Jul 12 7:53 PM — Jul 27 7:53 PM, Wichita, Weather by CustomWeather, © 2015

Note: Actual official high and low records may vary slightly from our data, if they occured in-between our weather recording intervals... More about our weather records

Advertising

Wichita weather history for previous 24 hours

 ConditionsComfort  
Time TempWeatherWind HumidityBarometerVisibility
7:53 PM
Mon, Jul 27
91 °FPassing clouds.15 mph41%29.78 "Hg10 mi
6:53 PM94 °FPassing clouds.15 mph36%29.78 "Hg10 mi
5:53 PM97 °FScattered clouds.18 mph29%29.78 "Hg10 mi
4:53 PM97 °FScattered clouds.17 mph33%29.79 "Hg10 mi
3:53 PM96 °FScattered clouds.18 mph34%29.81 "Hg10 mi
2:53 PM97 °FPartly sunny.17 mph36%29.82 "Hg10 mi
1:53 PM96 °FPartly sunny.21 mph40%29.83 "Hg10 mi
12:53 PM94 °FBroken clouds.18 mph46%29.84 "Hg10 mi
11:53 AM90 °FPartly sunny.9 mph54%29.86 "Hg10 mi
10:53 AM87 °FPartly sunny.13 mph63%29.86 "Hg10 mi
9:53 AM82 °FPartly sunny.14 mph72%29.87 "Hg10 mi
8:53 AM80 °FBroken clouds.8 mph69%29.88 "Hg10 mi
7:53 AM78 °FBroken clouds.6 mph74%29.87 "Hg10 mi
6:53 AM77 °FPartly cloudy.6 mph74%29.89 "Hg10 mi
5:53 AM78 °FPassing clouds.12 mph74%29.88 "Hg10 mi
4:53 AM79 °FMostly cloudy.No wind79%29.88 "Hg10 mi
3:53 AM80 °FOvercast.5 mph76%29.87 "Hg10 mi
2:53 AM79 °FPassing clouds.7 mph79%29.86 "Hg10 mi
1:53 AM79 °FPartly cloudy.5 mph79%29.86 "Hg10 mi
12:53 AM81 °FPassing clouds.9 mph74%29.86 "Hg10 mi
11:53 PM
Sun, Jul 26
82 °FPassing clouds.10 mph72%29.87 "Hg10 mi
10:53 PM84 °FClear.9 mph67%29.85 "Hg10 mi
9:53 PM86 °FClear.9 mph61%29.83 "Hg10 mi
Weather by CustomWeather, © 2015

See weather overviewHow to use our weather pages